Location: Pabrico
(37.5827°N, 122.0063°W)
Time: 15:18:31
(UTC+00:00)

Cosmos 1805 - Visible Passes

Search period start: 12 July 2024 00:00
Search period end: 22 July 2024 00:00
Orbit: 486 x 491 km, 82.5° (Epoch: 11 July)

Date Brightness Start Highest point End Pass type
(mag) Time Alt. Az. Time Alt. Az. Time Alt. Az.
13 Jul 4.2 12:17:41 10° SSE 12:21:12 45° E 12:24:44 10° NNE visible
14 Jul 5.1 11:54:39 10° SSE 11:57:48 28° E 12:00:59 10° NNE visible
15 Jul 5.8 11:31:56 10° SE 11:34:27 18° E 11:36:58 10° NE visible
16 Jul 6.1 11:09:55 10° ESE 11:11:05 11° E 11:12:15 10° ENE visible
17 Jul 3.2 12:18:39 10° SSW 12:22:16 59° W 12:25:55 10° N visible
18 Jul 3.1 11:55:04 10° S 11:58:44 82° E 12:02:25 10° N visible
19 Jul 4.0 11:31:54 11° SSE 11:35:12 47° E 11:38:46 10° NNE visible
20 Jul 4.9 11:08:59 13° SSE 11:11:42 29° E 11:14:55 10° NNE visible
21 Jul 5.6 10:46:01 12° SE 10:48:12 18° E 10:50:48 10° NE visible
21 Jul 4.5 12:20:29 11° SW 12:23:11 21° WNW 12:26:04 10° NNW visible
